Kansas City International, MO

12:37 AM CDT on April 24, 2018 (GMT -0500)
Kansas City International

Weather History for KMCI - October, 2012

Change the Weather History Date:

Tuesday, October 9, 2012

  Actual Average Record
Temperature  
Mean Temperature 54 °F 59 °F  
Max Temperature 66 °F 69 °F 90 °F (1963)
Min Temperature 42 °F 48 °F 27 °F (2000)
Degree Days  
Heating Degree Days 11 7  
Month to date heating degree days 113 57  
Since 1 July heating degree days 163 124  
Cooling Degree Days 0 1  
Month to date cooling degree days 3 14  
Year to date cooling degree days 1798 1346  
Growing Degree Days 5 (Base 50)    
Moisture  
Dew Point 37 °F    
Average Humidity 57    
Maximum Humidity 70    
Minimum Humidity 44    
Precipitation  
Precipitation 0.00 in 0.10 in 3.29 in (1985)
Month to date precipitation 0.01 1.06  
Year to date precipitation 18.56 33.08  
Snow  
Snow 0.00 in 0.00 in 0.00 in ()
Month to date snowfall 0.0 0.0  
Since 1 July snowfall 0.0 0.0  
Since 1 September snowfall 0.0 0.0  
Snow Depth 0.00 in    
Sea Level Pressure  
Sea Level Pressure 29.95 in    
Wind  
Wind Speed 11 mph (West)    
Max Wind Speed 21 mph    
Max Gust Speed 26 mph    
Visibility 10 miles    
Events      
T = Trace of Precipitation, MM = Missing Value Source: NWS Daily Summary

Daily Weather History Graph

Daily Weather History Graph

Search for Another Location

Airport or City:

Astronomy

Oct. 09, 2012 Rise Set
Actual Time 7:23 AM CDT 6:48 PM CDT
Civil Twilight 6:56 AM CDT 7:14 PM CDT
Nautical Twilight 6:25 AM CDT 7:45 PM CDT
Astronomical Twilight 5:54 AM CDT 8:16 PM CDT
Moon 1:02 AM CDT (10/9) 3:14 PM CDT (10/9)
Length of Visible Light 12h 18m
Length of Day
11h 24m
Last Quarter, 36% of the Moon is Illuminated
Oct 9
Last Quarter
Oct 15
New
Oct 21
First Quarter
Oct 29
Full
Nov 6
Last Quarter

Hourly Weather History & Observations

Time (CDT) Temp. Windchill Dew Point Humidity Pressure Visibility Wind Dir Wind Speed Gust Speed Precip Events Conditions
12:53 AM 51.1 °F - 35.1 °F 54% 29.93 in 10.0 mi SSW 17.3 mph - N/A   Clear
1:53 AM 51.1 °F - 35.1 °F 54% 29.92 in 10.0 mi SSW 18.4 mph - N/A   Clear
2:53 AM 48.2 °F - 35.6 °F 62% 29.92 in 10.0 mi SSW 11.5 mph - N/A   Clear
3:53 AM 46.9 °F - 35.1 °F 63% 29.91 in 10.0 mi SSW 12.7 mph - N/A   Clear
4:53 AM 46.0 °F 41.0 °F 35.1 °F 66% 29.91 in 10.0 mi SSW 10.4 mph - N/A   Partly Cloudy
5:53 AM 45.0 °F 39.7 °F 35.1 °F 68% 29.91 in 10.0 mi SSW 10.4 mph - N/A   Partly Cloudy
6:53 AM 45.0 °F 39.7 °F 36.0 °F 71% 29.91 in 10.0 mi SSW 10.4 mph - N/A   Scattered Clouds
7:53 AM 46.9 °F - 36.0 °F 66% 29.91 in 10.0 mi SSW 12.7 mph - N/A   Mostly Cloudy
8:53 AM 51.1 °F - 37.9 °F 61% 29.91 in 10.0 mi SSW 13.8 mph 21.9 mph N/A   Mostly Cloudy
9:53 AM 55.9 °F - 39.9 °F 55% 29.91 in 9.0 mi SW 16.1 mph 24.2 mph N/A   Mostly Cloudy
10:53 AM 59.0 °F - 41.0 °F 51% 29.92 in 10.0 mi SW 13.8 mph - N/A   Mostly Cloudy
11:53 AM 61.0 °F - 42.1 °F 50% 29.91 in 10.0 mi SW 13.8 mph - N/A   Mostly Cloudy
12:53 PM 64.9 °F - 43.0 °F 45% 29.90 in 10.0 mi WSW 8.1 mph - N/A   Mostly Cloudy
1:53 PM 63.0 °F - 42.1 °F 46% 29.90 in 10.0 mi NW 11.5 mph - N/A   Overcast
2:53 PM 62.1 °F - 41.0 °F 46% 29.90 in 10.0 mi NW 6.9 mph - N/A   Overcast
3:53 PM 61.0 °F - 39.0 °F 44% 29.92 in 10.0 mi North 12.7 mph - N/A   Overcast
4:53 PM 59.0 °F - 39.0 °F 48% 29.94 in 10.0 mi North 13.8 mph - N/A   Overcast
5:53 PM 57.9 °F - 41.0 °F 53% 29.97 in 10.0 mi North 15.0 mph 20.7 mph N/A   Overcast
6:53 PM 55.9 °F - 39.9 °F 55% 30.00 in 10.0 mi North 9.2 mph - N/A   Overcast
7:53 PM 52.0 °F - 39.0 °F 61% 30.04 in 10.0 mi North 10.4 mph - N/A   Mostly Cloudy
8:53 PM 50.0 °F - 32.0 °F 50% 30.06 in 10.0 mi North 12.7 mph - N/A   Scattered Clouds
9:53 PM 45.0 °F 41.8 °F 27.0 °F 49% 30.09 in 10.0 mi North 5.8 mph - N/A   Scattered Clouds
10:53 PM 45.0 °F 42.6 °F 26.1 °F 48% 30.12 in 10.0 mi WNW 4.6 mph - N/A   Clear
11:53 PM 45.0 °F 42.6 °F 25.0 °F 46% 30.13 in 10.0 mi WNW 4.6 mph - N/A   Clear